Hourly Data Report for October 03, 2016

All times are specified in Local Standard Time (LST). Add 1 hour to adjust for Daylight Saving Time where and when it is observed.

IQALUIT CLIMATE
NUNAVUT

63°44'50.000" N
68°32'40.000" W
33.50 m
2402592
71321
XFB

Download Data

Hourly Data (October 2016)
Hourly Data Report for October 3, 2016
Temp Definition
°C
Dew Point Temp Definition
°C
Rel Hum Definition
%
Wind Dir Definition
10's deg

Wind Spd Definition
km/h
Visibility Definition
km
Stn Press Definition
kPa
Hmdx Definition


Wind Chill Definition


Weather Definition


TIME
00:00 -1.6 -4.1 83 34 27   101.17   -8 LegendNANA
01:00 -1.6 -3.7 85 34 24   101.19   -8 LegendNANA
02:00 -1.9 -4.3 84 33 23   101.22   -8 LegendNANA
03:00 -2.1 -4.5 84 33 23   101.25   -8 LegendNANA
04:00 -1.8 -4.2 83 33 29   101.26   -9 LegendNANA
05:00 -2.0 -4.4 83 34 25   101.27   -8 LegendNANA
06:00 -1.9 -4.2 84 35 21   101.27   -8 LegendNANA
07:00 -1.7 -4.5 81 33 20   101.27   -7 LegendNANA
08:00 -0.9 -3.7 82 33 16   101.28   -6 LegendNANA
09:00
10:00
11:00 0.3 -3.6 75 34 31   101.19     LegendNANA
12:00 0.5 -3.6 74 33 24   101.15     LegendNANA
13:00 0.3 -3.4 76 32 29   101.14     LegendNANA
14:00 0.2 -3.8 75 32 25   101.12     LegendNANA
15:00 0.2 -3.6 76 32 17   101.09     LegendNANA
16:00 -0.3 -3.6 79 30 22   101.07   -6 LegendNANA
17:00 -0.8 -3.9 80 30 26   101.04   -7 LegendNANA
18:00 -1.0 -4.1 79 30 18   101.01   -6 LegendNANA
19:00 -1.3 -4.3 80 31 13   100.96   -6 LegendNANA
20:00 -1.5 -4.4 81 31 10   100.90   -5 LegendNANA
21:00 -1.5 -4.3 81 29 6   100.85   -4 LegendNANA
22:00 -1.7 -4.2 83 29 4   100.77   -3 LegendNANA
23:00 -1.8 -4.4 83 19 5   100.65   -4 LegendNANA

Notes on Data Quality.

Legend

  • E = Estimated
  • M = Missing
  • NA = Not Available
  • ‡ = Partner data that is not subject to review by the National Climate Archives
Date modified: